{"data":{"norad_id":56113,"epoch":"2026-09-20T01:43:17.655168Z","epoch_age_seconds":145724,"freshness":"FRESH","line1":"1 56113U 23046W   26263.07173212  .00000003  00000+0  96238-5 0  9998","line2":"2 56113  43.0035 143.4498 0001651 267.2183  92.8479 15.27574152191760","mean_motion":15.27574152,"eccentricity":0.0001651,"inclination_deg":43.0035,"raan_deg":143.4498,"arg_perigee_deg":267.2183,"mean_anomaly_deg":92.8479,"bstar":9.6238e-6,"rev_number":19176,"period_min":94.267109594297,"perigee_km":481.93382239579,"apogee_km":484.19939182686,"semimajor_km":6861.2036071113,"source":"CELESTRAK","updated_at":"2026-09-21T09:00:33.384424Z"}}